Indianapolis, IN

2:50 PM EST on November 21, 2017 (GMT -0500)
Indianapolis Terry

Weather History for KTYQ - July, 2013

Change the Weather History Date:

Thursday, July 4, 2013

  Actual Average (KEYE) Record (KEYE)
Temperature  
Mean Temperature 68 °F -  
Max Temperature 77 °F 80 °F 100 °F (2012)
Min Temperature 60 °F 63 °F 53 °F (2014)
Cooling Degree Days 4    
Growing Degree Days 18 (Base 50)    
Moisture  
Dew Point 61 °F    
Average Humidity 78    
Maximum Humidity 91    
Minimum Humidity 50    
Precipitation  
Precipitation 0.00 in - - ()
Sea Level Pressure  
Sea Level Pressure 30.13 in    
Wind  
Wind Speed 1 mph (East)    
Max Wind Speed 6 mph    
Max Gust Speed -    
Visibility 7 miles    
Events      
Averages and records for this station are not official NWS values.
T = Trace of Precipitation, MM = Missing Value Source: NWS Daily Summary

Daily Weather History Graph

Daily Weather History Graph

Search for Another Location

Airport or City:

Trip Planner

Search our weather history database for the weather conditions in past years. The results will help you decide how hot, cold, wet, or windy it might be!

Date:

Astronomy

Jul. 04, 2013 Rise Set
Actual Time 6:21 AM EDT 9:17 PM EDT
Civil Twilight 5:48 AM EDT 9:49 PM EDT
Nautical Twilight 5:07 AM EDT 10:30 PM EDT
Astronomical Twilight 4:20 AM EDT 11:18 PM EDT
Moon 3:37 AM EDT (7/4) 6:21 PM EDT (7/4)
Length of Visible Light 16h 00m
Length of Day
14h 55m
Waning Crescent, 11% of the Moon is Illuminated
Jul 4
Waning Crescent
Jul 8
New
Jul 15
First Quarter
Jul 22
Full
Jul 29
Last Quarter

Hourly Weather History & Observations

Time (EDT) Temp. Dew Point Humidity Pressure Visibility Wind Dir Wind Speed Gust Speed Precip Events Conditions
12:15 AM 64.9 °F 61.3 °F 88% 30.12 in 5.0 mi Calm Calm - N/A   Clear
12:35 AM 64.8 °F 61.3 °F 89% 30.12 in 5.0 mi Calm Calm - N/A   Clear
12:55 AM 64.6 °F 61.2 °F 89% 30.12 in 7.0 mi Calm Calm - N/A   Clear
1:15 AM 63.9 °F 60.8 °F 90% 30.12 in 5.0 mi Calm Calm - N/A   Clear
1:35 AM 63.9 °F 60.6 °F 89% 30.12 in 5.0 mi Calm Calm - N/A   Clear
1:55 AM 63.3 °F 60.3 °F 90% 30.12 in 5.0 mi Calm Calm - N/A   Clear
2:15 AM 63.0 °F 59.9 °F 90% 30.12 in 2.5 mi Calm Calm - N/A   Clear
2:35 AM 62.6 °F 59.7 °F 90% 30.12 in 3.0 mi Calm Calm - N/A   Clear
2:55 AM 62.8 °F 59.7 °F 90% 30.12 in 2.5 mi Calm Calm - N/A   Clear
3:15 AM 62.1 °F 59.2 °F 90% 30.12 in 4.0 mi Calm Calm - N/A   Clear
3:35 AM 62.1 °F 59.2 °F 90% 30.12 in 5.0 mi Calm Calm - N/A   Clear
3:55 AM 62.1 °F 59.2 °F 90% 30.12 in 5.0 mi Calm Calm - N/A   Clear
4:15 AM 61.7 °F 59.0 °F 91% 30.12 in 2.5 mi Calm Calm - N/A   Clear
4:35 AM 61.7 °F 58.8 °F 90% 30.13 in 1.8 mi Calm Calm - N/A   Mist
4:55 AM 61.0 °F 58.1 °F 90% 30.13 in 4.0 mi Calm Calm - N/A   Clear
5:15 AM 61.0 °F 58.1 °F 90% 30.13 in 3.0 mi Calm Calm - N/A   Clear
5:35 AM 61.2 °F 58.3 °F 90% 30.13 in 1.8 mi Calm Calm - N/A   Mostly Cloudy
5:55 AM 61.3 °F 58.5 °F 90% 30.13 in 4.0 mi Calm Calm - N/A   Scattered Clouds
6:15 AM 60.8 °F 58.1 °F 91% 30.13 in 3.0 mi Calm Calm - N/A   Mostly Cloudy
6:35 AM 61.3 °F 58.6 °F 91% 30.14 in 3.0 mi Calm Calm - N/A   Overcast
6:55 AM 61.7 °F 59.0 °F 91% 30.14 in 3.0 mi Calm Calm - N/A   Scattered Clouds
7:15 AM 61.7 °F 59.0 °F 91% 30.14 in 3.0 mi Calm Calm - N/A   Clear
7:35 AM 62.1 °F 59.2 °F 90% 30.14 in 3.0 mi Calm Calm - N/A   Clear
7:55 AM 62.8 °F 59.9 °F 90% 30.15 in 2.5 mi Calm Calm - N/A   Clear
8:15 AM 63.7 °F 60.8 °F 90% 30.16 in 4.0 mi Calm Calm - N/A   Clear
8:35 AM 65.3 °F 62.4 °F 90% 30.16 in 4.0 mi Calm Calm - N/A   Clear
8:55 AM 66.4 °F 63.5 °F 90% 30.16 in 4.0 mi Calm Calm - N/A   Clear
9:35 AM 68.7 °F 65.3 °F 89% 30.16 in 5.0 mi Calm Calm - N/A   Clear
9:55 AM 69.8 °F 64.8 °F 84% 30.16 in 7.0 mi Calm Calm - N/A   Clear
10:15 AM 70.7 °F 63.7 °F 78% 30.16 in 10.0 mi Calm Calm - N/A   Clear
10:35 AM 71.6 °F 63.3 °F 75% 30.16 in 10.0 mi ENE 3.5 mph - N/A   Clear
10:55 AM 73.6 °F 60.3 °F 63% 30.16 in 10.0 mi ENE 4.6 mph - N/A   Clear
11:15 AM 74.8 °F 56.3 °F 52% 30.16 in 10.0 mi NNE 3.5 mph - N/A   Clear
11:35 AM 75.9 °F 56.8 °F 51% 30.16 in 10.0 mi ENE 3.5 mph - N/A   Clear
11:55 AM 76.1 °F 57.4 °F 52% 30.16 in 10.0 mi East 4.6 mph - N/A   Clear
12:15 PM 76.3 °F 58.5 °F 54% 30.16 in 10.0 mi East 5.8 mph - N/A   Clear
12:35 PM 76.6 °F 58.5 °F 53% 30.17 in 10.0 mi East 4.6 mph - N/A   Clear
12:55 PM 76.1 °F 57.0 °F 51% 30.16 in 10.0 mi ESE 5.8 mph - N/A   Clear
2:15 PM 76.3 °F 56.5 °F 50% 30.15 in 10.0 mi East 3.5 mph - N/A   Clear
2:35 PM 75.9 °F 57.6 °F 53% 30.15 in 10.0 mi Calm Calm - N/A   Clear
2:55 PM 76.1 °F 60.6 °F 59% 30.14 in 10.0 mi Calm Calm - N/A   Scattered Clouds
3:15 PM 75.7 °F 61.9 °F 62% 30.14 in 10.0 mi Calm Calm - N/A   Clear
3:35 PM 76.3 °F 62.4 °F 62% 30.13 in 10.0 mi East 3.5 mph - N/A   Scattered Clouds
3:55 PM 76.3 °F 62.2 °F 62% 30.13 in 10.0 mi East 3.5 mph - N/A   Scattered Clouds
4:15 PM 77.0 °F 63.3 °F 63% 30.12 in 10.0 mi East 4.6 mph - N/A   Clear
4:35 PM 76.6 °F 62.4 °F 61% 30.11 in 10.0 mi East 4.6 mph - N/A   Clear
4:55 PM 76.3 °F 62.2 °F 62% 30.11 in 10.0 mi ESE 4.6 mph - N/A   Clear
5:15 PM 76.3 °F 62.8 °F 63% 30.11 in 10.0 mi SE 3.5 mph - N/A   Mostly Cloudy
5:35 PM 75.7 °F 64.0 °F 67% 30.11 in 10.0 mi ESE 4.6 mph - N/A   Mostly Cloudy
5:55 PM 76.3 °F 63.7 °F 65% 30.11 in 10.0 mi ESE 4.6 mph - N/A   Scattered Clouds
6:15 PM 76.1 °F 62.8 °F 63% 30.11 in 10.0 mi South 3.5 mph - N/A   Scattered Clouds
6:35 PM 75.2 °F 63.3 °F 66% 30.10 in 10.0 mi SE 3.5 mph - N/A   Mostly Cloudy
6:55 PM 74.5 °F 64.0 °F 70% 30.10 in 10.0 mi Calm Calm - N/A   Overcast
7:15 PM 74.3 °F 63.5 °F 69% 30.10 in 10.0 mi South 5.8 mph - N/A   Scattered Clouds
7:35 PM 73.9 °F 64.2 °F 72% 30.09 in 10.0 mi Calm Calm - N/A   Mostly Cloudy
7:55 PM 73.4 °F 64.2 °F 73% 30.10 in 10.0 mi Calm Calm - N/A   Mostly Cloudy
8:15 PM 73.0 °F 64.9 °F 76% 30.10 in 10.0 mi Calm Calm - N/A   Scattered Clouds
8:55 PM 71.8 °F 65.3 °F 80% 30.10 in 10.0 mi Calm Calm - N/A   Clear
9:15 PM 70.9 °F 65.5 °F 83% 30.10 in 10.0 mi Calm Calm - N/A   Scattered Clouds
9:35 PM 70.7 °F 65.3 °F 83% 30.10 in 10.0 mi Calm Calm - N/A   Scattered Clouds
9:55 PM 70.3 °F 64.9 °F 83% 30.11 in 7.0 mi Calm Calm - N/A   Clear
10:15 PM 70.0 °F 65.1 °F 85% 30.11 in 7.0 mi Calm Calm - N/A   Clear
10:35 PM 69.6 °F 65.1 °F 86% 30.10 in 7.0 mi Calm Calm - N/A   Clear
10:55 PM 68.9 °F 64.8 °F 87% 30.11 in 7.0 mi Calm Calm - N/A   Clear
11:15 PM 68.9 °F 64.8 °F 87% 30.11 in 7.0 mi Calm Calm - N/A   Mostly Cloudy
11:35 PM 68.5 °F 64.6 °F 87% 30.11 in 5.0 mi ESE 3.5 mph - N/A   Mostly Cloudy
11:55 PM 68.2 °F 64.4 °F 88% 30.11 in 4.0 mi Calm Calm - N/A   Scattered Clouds